TimeAKST,TemperatureF,Dew PointF,Humidity,Sea Level PressureIn,VisibilityMPH,Wind Direction,Wind SpeedMPH,Gust SpeedMPH,PrecipitationIn,Events,Conditions,WindDirDegrees,DateUTC
12:53 AM,39.0,37.0,93,30.32,10.0,SSW,3.5,-,N/A,,Clear,200,2013-01-20 09:53:00
1:53 AM,37.0,37.0,100,30.32,10.0,Calm,Calm,-,N/A,,Scattered Clouds,0,2013-01-20 10:53:00
3:53 AM,37.9,37.0,97,30.30,10.0,SE,5.8,-,N/A,,Mostly Cloudy,140,2013-01-20 12:53:00
4:53 AM,37.9,37.0,97,30.30,10.0,SE,6.9,-,N/A,,Overcast,130,2013-01-20 13:53:00
5:53 AM,37.9,37.0,97,30.30,10.0,SE,8.1,-,N/A,,Overcast,140,2013-01-20 14:53:00
6:16 AM,37.4,37.4,100,30.29,10.0,SE,8.1,-,N/A,,Overcast,130,2013-01-20 15:16:00
6:53 AM,37.9,37.0,97,30.29,10.0,SE,8.1,-,N/A,,Overcast,130,2013-01-20 15:53:00
7:53 AM,37.9,37.0,97,30.30,10.0,SE,6.9,-,N/A,,Overcast,140,2013-01-20 16:53:00
8:53 AM,39.0,37.0,93,30.31,10.0,SE,8.1,-,N/A,,Overcast,130,2013-01-20 17:53:00
9:53 AM,39.9,37.0,89,30.32,10.0,ESE,6.9,-,N/A,,Overcast,110,2013-01-20 18:53:00
10:53 AM,39.9,37.0,89,30.31,10.0,ESE,6.9,-,N/A,,Overcast,110,2013-01-20 19:53:00
11:53 AM,42.1,37.0,82,30.31,10.0,SSE,6.9,-,N/A,,Overcast,150,2013-01-20 20:53:00
12:53 PM,42.1,37.0,82,30.29,10.0,SSE,5.8,-,N/A,,Overcast,160,2013-01-20 21:53:00
1:53 PM,42.1,36.0,79,30.27,10.0,SSE,8.1,-,N/A,,Overcast,160,2013-01-20 22:53:00
2:53 PM,42.1,37.0,82,30.27,10.0,South,5.8,-,N/A,,Overcast,170,2013-01-20 23:53:00
3:53 PM,42.1,36.0,79,30.26,10.0,South,4.6,-,N/A,,Overcast,170,2013-01-21 00:53:00
4:53 PM,42.1,37.0,82,30.27,9.0,SSE,5.8,-,0.00,Rain,Light Rain,160,2013-01-21 01:53:00
5:53 PM,41.0,37.9,89,30.25,10.0,South,5.8,-,0.00,,Overcast,180,2013-01-21 02:53:00
6:53 PM,39.9,37.9,93,30.25,6.0,SSE,5.8,-,0.01,Rain,Light Rain,160,2013-01-21 03:53:00
7:53 PM,39.9,37.9,93,30.24,7.0,SSE,5.8,-,0.00,Rain,Light Rain,160,2013-01-21 04:53:00
8:53 PM,41.0,39.0,93,30.25,5.0,South,6.9,-,0.02,Rain,Light Rain,180,2013-01-21 05:53:00
9:53 PM,39.9,39.0,97,30.25,4.0,South,6.9,-,0.02,Rain,Light Rain,170,2013-01-21 06:53:00
10:42 PM,39.2,39.2,100,30.24,4.0,SE,10.4,-,0.01,,Overcast,140,2013-01-21 07:42:00
10:53 PM,41.0,39.0,93,30.25,5.0,SSE,8.1,-,0.01,,Overcast,150,2013-01-21 07:53:00
11:53 PM,41.0,39.2,93,30.24,8.0,SSE,6.9,-,N/A,,Overcast,160,2013-01-21 08:53:00